National Weather Service United States Department of Commerce

Latest Hourly Weather Roundup

TOPSWRTT 000
TTAA00 KICT 190510

Wichita AWIPS Roundup
National Weather Service Wichita KS
1200 AM CDT FRI APR 19 2024

....Central Kansas....
  
CITY           SKY/WX    TMP DP  RH WIND       PRES   REMARKS
RUSSELL        CLOUDY    44  29  55 NW5       30.25S                  
SALINA         CLEAR     43  29  57 NW7       30.26R WCI  39          
GREAT BEND     PTCLDY    39  27  62 N7        30.27S WCI  34          
ELLSWORTH      NOT AVBL                                               
LYONS          PTCLDY    40  26  57 N7        30.25S WCI  35          
MCPHERSON      PTCLDY    40  29  63 N7        30.25R WCI  36          
HAYS           CLOUDY    43  30  60 W3        30.28R                  

....South Central Kansas....
  
CITY           SKY/WX    TMP DP  RH WIND       PRES   REMARKS
HUTCHINSON     PTCLDY    45  29  53 N6        30.24R                  
NEWTON         PTCLDY    43  37  79 N9        30.24R WCI  38          
KINGMAN        NOT AVBL                                               
WICHITA (ICT)  PTCLDY    49  35  58 N8        30.21R                  
JABARA ARPT    PTCLDY    42  35  76 N7        30.22R WCI  38          
BEECH ARPT     PTCLDY    45  35  69 N7        30.22R                  
MCCONNELL AFB  PTCLDY    47  36  65 NE8       30.21R                  
BENTON         NOT AVBL                                               
EL DORADO      CLEAR     45  37  76 NE8       30.21S                  
AUGUSTA          N/A    N/A N/A N/A MISG        N/A                   
WELLINGTON     CLEAR     45  38  77 N8        30.22R                  
WINFIELD       CLEAR     44  41  89 N5        30.22R                  
 
....Southeast Kansas....
  
CITY           SKY/WX    TMP DP  RH WIND       PRES   REMARKS
EUREKA         CLEAR    N/A N/A N/A N9        30.21S                  
IOLA           PTCLDY    45  42  88 N6        30.20S                  
CHANUTE        CLOUDY    51  43  74 N7        30.19R                  
PARSONS        CLEAR     48  42  80 N6        30.19R                  
COFFEYVILLE    CLOUDY    52  42  69 N10       30.16R                  
INDEPENDENCE   CLEAR     47  42  82 N10       30.19R                  
FORT SCOTT     NOT AVBL                                               
PITTSBURG      CLOUDY    51  42  72 N13       30.15R                  

....Western Kansas....
  
CITY           SKY/WX    TMP DP  RH WIND       PRES   REMARKS
GOODLAND       CLOUDY    41  24  51 W3        30.27R                  
HILL CITY      CLOUDY    46  33  60 CALM      30.28R                  
LIBERAL        MOCLDY    43  26  51 N12       30.28R WCI  37          
GARDEN CITY    PTCLDY    39  23  52 NE8       30.26F WCI  33          
DODGE CITY     CLEAR     38  24  57 N8        30.27R WCI  32          
PRATT          PTCLDY    44  27  50 N8        30.25S WCI  39          
MEDICINE LODGE   N/A     45  30  55 N8        30.23R                  

....Northeast Kansas....
  
CITY           SKY/WX    TMP DP  RH WIND       PRES   REMARKS
CONCORDIA      PTCLDY    45  29  53 NE3       30.25S                  
TOPEKA         CLEAR     46  36  68 N6        30.23R                  
MANHATTAN      CLEAR     46  35  65 N5        30.24S                  
LAWRENCE       CLEAR     42  37  82 N10       30.22R WCI  36          
OLATHE         CLEAR     47  41  80 N6        30.20R                  
EMPORIA        CLEAR     47  35  63 N13       30.21R                  

....Oklahoma....
  
CITY           SKY/WX    TMP DP  RH WIND       PRES   REMARKS
GAGE           PTCLDY    46  31  55 NE9       30.22R                  
PONCA CITY     CLEAR     45  40  82 N6        30.19S                  
BARTLESVILLE   CLOUDY    53  42  66 N13G22    30.19R                  
TULSA          CLOUDY    54  46  74 N10G21    30.15R                  
OKLAHOMA CITY  CLOUDY    54  43  66 N15G25    30.14F                  

Note: "fair" indicates few or no clouds below 12,000 feet with no
significant weather and/or obstructions to visibility.